Location: D�rnast
(49.6426°N, 11.9755°E)
Time: 03:18:44
(UTC+00:00)

CSL-04 Debris - Pass Details

Date: 24 January 2021
Orbit: 827 x 847 km, 98.9° (Epoch: 24 February)

Event Time Altitude Azimuth Distance (km) Brightness Sun altitude
Rises 18:17:51 0° 169° (S) 3,358 7.2 -23.0°
Reaches altitude 10° 18:20:12 10° 171° (S) 2,427 6.5 -23.3°
Maximum altitude 18:25:34 72° 256° (WSW) 872 4.3 -24.2°
Drops below altitude 10° 18:30:59 10° 341° (NNW) 2,444 6.8 -25.1°
Sets 18:33:21 0° 344° (NNW) 3,382 7.5 -25.5°
